Tracking 29782 objects as of 13-Oct-2024
HD Live streaming from Space Station
objects crossing your sky now

SL-12 R/B(2)

Track SL-12 R/B(2) now!


NORAD ID: 16870
Int'l Code: 1986-007F
Perigee: 36,354.8 km
Apogee: 36,647.6 km
Inclination: 12.0 °
Period: 1,472.4 minutes
Semi major axis: 42872 km
RCS: 2.3779 m2 (large)
Launch date: January 17, 1986
Source: Commonwealth of Independent States (former USSR) (CIS)
Launch site: TYURATAM MISSILE AND SPACE COMPLEX (TTMTR)

Note: This is a ROCKET BODY
Your satellite tracking list
Your tracking list is empty




NASA's NSSDC Master Catalog

Two Line Element Set (TLE):
1 16870U 86007F   24286.79553326 -.00000148  00000-0  00000-0 0  9999
2 16870  12.0380 326.5586 0034154 163.7645 306.5524  0.97800129136654
Source of the keplerian elements: AFSPC